Previsão horária em Abay (Saryagashskiy rayon)

Hoje, 11 Abril, Domingo

Tempo Temperatura Precipitação Vento Pressão Humidade
00:00 +15°C° 0 mm 2 m/s 731 mmHg 48%
01:00 +15°C° 0 mm 2 m/s 731 mmHg 48%
02:00 +14°C° 0 mm 2 m/s 731 mmHg 48%
03:00 +13°C° 0 mm 2 m/s 731 mmHg 51%
04:00 +12°C° 0 mm 2 m/s 731 mmHg 53%
05:00 +12°C° 0 mm 2 m/s 731 mmHg 56%
06:00 +11°C° 0 mm 3 m/s 732 mmHg 53%
07:00 +11°C° 0 mm 3 m/s 732 mmHg 51%
08:00 +11°C° 0 mm 4 m/s 732 mmHg 49%
09:00 +12°C° 0 mm 3 m/s 733 mmHg 43%
10:00 +13°C° 0 mm 3 m/s 733 mmHg 38%
11:00 +16°C° 0 mm 3 m/s 733 mmHg 32%
12:00 +16°C° 0 mm 3 m/s 733 mmHg 32%
13:00 +17°C° 0 mm 3 m/s 733 mmHg 32%
14:00 +18°C° 0 mm 3 m/s 733 mmHg 32%
15:00 +18°C° 0 mm 3 m/s 733 mmHg 33%
16:00 +18°C° 0 mm 3 m/s 732 mmHg 34%
17:00 +18°C° 0 mm 3 m/s 732 mmHg 34%
18:00 +16°C° 0 mm 3 m/s 732 mmHg 39%
19:00 +13°C° 0 mm 3 m/s 732 mmHg 44%
20:00 +11°C° 0 mm 3 m/s 732 mmHg 48%
21:00 +12°C° 0 mm 2 m/s 732 mmHg 50%
22:00 +10°C° 0 mm 2 m/s 732 mmHg 51%
23:00 +11°C° 0 mm 1 m/s 731 mmHg 52%

Amanhã, 12 Abril, Segunda-feira

Tempo Temperatura Precipitação Vento Pressão Humidade
00:00 +9°C° 0 mm 2 m/s 731 mmHg 53%
01:00 +8°C° 0 mm 2 m/s 732 mmHg 54%
02:00 +7°C° 0 mm 3 m/s 732 mmHg 55%
03:00 +7°C° 0 mm 2 m/s 732 mmHg 55%
04:00 +7°C° 0 mm 2 m/s 732 mmHg 56%
05:00 +6°C° 0 mm 2 m/s 733 mmHg 56%
06:00 +7°C° 0 mm 2 m/s 733 mmHg 55%
07:00 +9°C° 0 mm 1 m/s 733 mmHg 53%
08:00 +10°C° 0 mm 1 m/s 733 mmHg 52%
09:00 +12°C° 0 mm 1 m/s 733 mmHg 47%
10:00 +13°C° 0 mm 2 m/s 733 mmHg 41%
11:00 +15°C° 0 mm 2 m/s 733 mmHg 36%
12:00 +16°C° 0 mm 3 m/s 733 mmHg 34%
13:00 +17°C° 0 mm 3 m/s 732 mmHg 32%
14:00 +19°C° 0 mm 3 m/s 732 mmHg 31%
15:00 +18°C° 0 mm 3 m/s 732 mmHg 32%
16:00 +18°C° 0 mm 3 m/s 732 mmHg 33%
17:00 +18°C° 0 mm 3 m/s 732 mmHg 34%
18:00 +16°C° 0 mm 2 m/s 732 mmHg 38%
19:00 +15°C° 0 mm 1 m/s 732 mmHg 42%
20:00 +13°C° 0 mm 1 m/s 732 mmHg 47%
21:00 +13°C° 0 mm 1 m/s 732 mmHg 48%
22:00 +12°C° 0 mm 1 m/s 732 mmHg 49%
23:00 +12°C° 0 mm 1 m/s 732 mmHg 51%

Depois de amanhã, 13 Abril, Terça-feira

Tempo Temperatura Precipitação Vento Pressão Humidade
00:00 +12°C° 0 mm 1 m/s 732 mmHg 52%
01:00 +11°C° 0 mm 1 m/s 732 mmHg 54%
02:00 +11°C° 0 mm 1 m/s 732 mmHg 56%
03:00 +11°C° 0 mm 1 m/s 732 mmHg 56%
04:00 +10°C° 0 mm 1 m/s 732 mmHg 57%
05:00 +10°C° 0 mm 1 m/s 732 mmHg 58%
06:00 +11°C° 0 mm 1 m/s 732 mmHg 56%
07:00 +12°C° 0 mm 1 m/s 733 mmHg 53%
08:00 +13°C° 0 mm 0 m/s 733 mmHg 50%
09:00 +15°C° 0 mm 1 m/s 734 mmHg 48%
10:00 +16°C° 0 mm 1 m/s 734 mmHg 45%
11:00 +18°C° 0 mm 1 m/s 734 mmHg 42%
12:00 +18°C° 0 mm 2 m/s 734 mmHg 41%
13:00 +18°C° 0 mm 3 m/s 734 mmHg 40%
14:00 +19°C° 0 mm 4 m/s 734 mmHg 40%
15:00 +19°C° 0 mm 4 m/s 734 mmHg 43%
16:00 +19°C° 0 mm 4 m/s 733 mmHg 47%
17:00 +18°C° 0 mm 4 m/s 733 mmHg 51%
18:00 +17°C° 0 mm 3 m/s 733 mmHg 56%
19:00 +16°C° 0 mm 2 m/s 733 mmHg 61%
20:00 +15°C° 0 mm 1 m/s 733 mmHg 67%
21:00 +14°C° 0 mm 2 m/s 733 mmHg 68%
22:00 +14°C° 0 mm 2 m/s 733 mmHg 69%
23:00 +14°C° 0 mm 2 m/s 732 mmHg 70%

14 Abril, Quarta-feira

Tempo Temperatura Precipitação Vento Pressão Humidade
00:00 +14°C° 0 mm 2 m/s 732 mmHg 68%
01:00 +13°C° 0 mm 3 m/s 731 mmHg 67%
02:00 +13°C° 0 mm 3 m/s 731 mmHg 65%
03:00 +14°C° 0 mm 2 m/s 731 mmHg 65%
04:00 +14°C° 0 mm 2 m/s 731 mmHg 65%
05:00 +14°C° 0 mm 1 m/s 731 mmHg 64%
06:00 +15°C° 0 mm 1 m/s 731 mmHg 60%
07:00 +16°C° 0 mm 1 m/s 731 mmHg 56%
08:00 +18°C° 0 mm 1 m/s 731 mmHg 52%
09:00 +20°C° 0 mm 1 m/s 731 mmHg 46%
10:00 +23°C° 0 mm 1 m/s 731 mmHg 40%
11:00 +25°C° 0 mm 1 m/s 730 mmHg 34%
12:00 +25°C° 0 mm 1 m/s 730 mmHg 32%
13:00 +26°C° 0 mm 1 m/s 729 mmHg 30%
14:00 +27°C° 0 mm 1 m/s 729 mmHg 28%
15:00 +27°C° 0 mm 1 m/s 729 mmHg 28%
16:00 +27°C° 0 mm 1 m/s 728 mmHg 28%
17:00 +28°C° 0 mm 1 m/s 728 mmHg 28%
18:00 +26°C° 0 mm 1 m/s 728 mmHg 33%
19:00 +24°C° 0 mm 1 m/s 727 mmHg 38%
20:00 +21°C° 0 mm 2 m/s 727 mmHg 43%
21:00 +20°C° 0 mm 2 m/s 727 mmHg 45%
22:00 +19°C° 0 mm 2 m/s 727 mmHg 47%
23:00 +18°C° 0 mm 2 m/s 727 mmHg 48%

15 Abril, Quinta-feira

Tempo Temperatura Precipitação Vento Pressão Humidade
00:00 +17°C° 0 mm 2 m/s 727 mmHg 51%
01:00 +16°C° 0 mm 2 m/s 727 mmHg 55%
02:00 +15°C° 0 mm 2 m/s 727 mmHg 58%
03:00 +15°C° 0 mm 1 m/s 727 mmHg 57%
04:00 +14°C° 0 mm 1 m/s 728 mmHg 57%
05:00 +13°C° 0 mm 0 m/s 728 mmHg 56%
06:00 +14°C° 0 mm 0 m/s 729 mmHg 52%
07:00 +15°C° 0 mm 0 m/s 729 mmHg 48%
08:00 +18°C° 0 mm 1 m/s 730 mmHg 44%
09:00 +20°C° 0 mm 1 m/s 730 mmHg 39%
10:00 +20°C° 0 mm 2 m/s 730 mmHg 35%
11:00 +21°C° 0 mm 3 m/s 730 mmHg 30%
12:00 +22°C° 0 mm 3 m/s 730 mmHg 29%
13:00 +24°C° 0 mm 2 m/s 730 mmHg 28%
14:00 +24°C° 0 mm 2 m/s 730 mmHg 26%
15:00 +24°C° 0 mm 2 m/s 730 mmHg 27%
16:00 +24°C° 0 mm 2 m/s 730 mmHg 27%
17:00 +24°C° 0 mm 2 m/s 730 mmHg 28%
18:00 +22°C° 0 mm 1 m/s 730 mmHg 31%
19:00 +21°C° 0 mm 1 m/s 730 mmHg 34%
20:00 +20°C° 0 mm 1 m/s 730 mmHg 36%
21:00 +19°C° 0 mm 1 m/s 729 mmHg 38%
22:00 +17°C° 0 mm 2 m/s 729 mmHg 39%
23:00 +17°C° 0 mm 2 m/s 729 mmHg 41%

16 Abril, Sexta-feira

Tempo Temperatura Precipitação Vento Pressão Humidade
00:00 +16°C° 0 mm 2 m/s 729 mmHg 42%
01:00 +16°C° 0 mm 2 m/s 729 mmHg 43%
02:00 +16°C° 0 mm 2 m/s 728 mmHg 44%
03:00 +15°C° 0 mm 2 m/s 728 mmHg 44%
04:00 +15°C° 0 mm 2 m/s 728 mmHg 44%
05:00 +15°C° 0 mm 2 m/s 728 mmHg 44%
06:00 +16°C° 0 mm 1 m/s 728 mmHg 42%
07:00 +18°C° 0 mm 1 m/s 729 mmHg 40%
08:00 +19°C° 0 mm 1 m/s 729 mmHg 39%
09:00 +21°C° 0 mm 1 m/s 729 mmHg 36%
10:00 +21°C° 0 mm 2 m/s 729 mmHg 32%
11:00 +24°C° 0 mm 2 m/s 729 mmHg 29%
12:00 +24°C° 0 mm 3 m/s 729 mmHg 29%
13:00 +25°C° 0 mm 3 m/s 729 mmHg 29%
14:00 +25°C° 0 mm 4 m/s 728 mmHg 28%
15:00 +25°C° 0 mm 4 m/s 728 mmHg 31%
16:00 +23°C° 0 mm 4 m/s 729 mmHg 33%
17:00 +22°C° 0 mm 3 m/s 729 mmHg 36%
18:00 +21°C° 0 mm 3 m/s 729 mmHg 40%
19:00 +19°C° 0 mm 3 m/s 729 mmHg 44%
20:00 +17°C° 0 mm 2 m/s 730 mmHg 49%
21:00 +17°C° 0 mm 2 m/s 730 mmHg 49%
22:00 +17°C° 0 mm 2 m/s 729 mmHg 50%
23:00 +16°C° 0 mm 2 m/s 729 mmHg 50%
Mostrar mais